TimeCST,TemperatureF,Dew PointF,Humidity,Sea Level PressureIn,VisibilityMPH,Wind Direction,Wind SpeedMPH,Gust SpeedMPH,PrecipitationIn,Events,Conditions,WindDirDegrees,DateUTC
12:12 AM,46.4,30.2,53,30.31,10.0,South,4.6,-,N/A,,Clear,170,2012-11-18 06:12:00
12:32 AM,44.6,30.2,57,30.31,10.0,SSE,5.8,-,N/A,,Clear,150,2012-11-18 06:32:00
12:53 AM,44.6,30.2,57,30.31,10.0,SSE,5.8,-,N/A,,Clear,150,2012-11-18 06:53:00
1:12 AM,41.0,28.4,61,30.31,10.0,SE,6.9,-,N/A,,Clear,140,2012-11-18 07:12:00
1:32 AM,42.8,28.4,57,30.31,10.0,SSE,5.8,-,N/A,,Scattered Clouds,150,2012-11-18 07:32:00
1:53 AM,42.8,26.6,53,30.30,10.0,SSE,5.8,-,N/A,,Scattered Clouds,150,2012-11-18 07:53:00
2:12 AM,42.8,28.4,57,30.30,10.0,SSE,6.9,-,N/A,,Scattered Clouds,150,2012-11-18 08:12:00
2:32 AM,42.8,28.4,57,30.30,10.0,SSE,6.9,-,N/A,,Clear,150,2012-11-18 08:32:00
2:52 AM,41.0,28.4,61,30.30,10.0,SSE,5.8,-,N/A,,Clear,160,2012-11-18 08:52:00
3:12 AM,41.0,28.4,61,30.30,10.0,SE,6.9,-,N/A,,Clear,140,2012-11-18 09:12:00
3:33 AM,41.0,28.4,61,30.29,10.0,SSE,8.1,-,N/A,,Clear,150,2012-11-18 09:33:00
3:52 AM,41.0,28.4,61,30.28,10.0,SSE,6.9,-,N/A,,Clear,150,2012-11-18 09:52:00
4:12 AM,41.0,28.4,61,30.28,10.0,SSE,8.1,-,N/A,,Scattered Clouds,150,2012-11-18 10:12:00
4:33 AM,41.0,28.4,61,30.28,10.0,South,8.1,-,N/A,,Clear,170,2012-11-18 10:33:00
4:52 AM,41.0,28.4,61,30.27,10.0,SSE,6.9,17.3,N/A,,Clear,160,2012-11-18 10:52:00
5:12 AM,41.0,28.4,61,30.27,10.0,South,6.9,-,N/A,,Clear,170,2012-11-18 11:12:00
5:33 AM,42.8,28.4,57,30.26,10.0,SSE,9.2,-,N/A,,Clear,160,2012-11-18 11:33:00
5:52 AM,41.0,28.4,61,30.26,10.0,SSE,6.9,-,N/A,,Clear,150,2012-11-18 11:52:00
6:12 AM,41.0,28.4,61,30.25,10.0,SSE,8.1,-,N/A,,Clear,160,2012-11-18 12:12:00
6:33 AM,41.0,28.4,61,30.25,10.0,SSE,5.8,-,N/A,,Clear,150,2012-11-18 12:33:00
6:52 AM,39.2,28.4,65,30.26,10.0,SSE,4.6,-,N/A,,Clear,160,2012-11-18 12:52:00
7:12 AM,39.2,28.4,65,30.26,10.0,SSE,5.8,-,N/A,,Clear,160,2012-11-18 13:12:00
7:33 AM,39.2,30.2,70,30.25,10.0,SSE,5.8,-,N/A,,Clear,150,2012-11-18 13:33:00
7:52 AM,41.0,30.2,65,30.25,10.0,SSE,5.8,-,N/A,,Scattered Clouds,150,2012-11-18 13:52:00
8:12 AM,42.8,30.2,61,30.25,10.0,SSE,8.1,-,N/A,,Mostly Cloudy,150,2012-11-18 14:12:00
8:33 AM,42.8,30.2,61,30.25,10.0,SSE,8.1,-,N/A,,Scattered Clouds,160,2012-11-18 14:33:00
8:52 AM,44.6,30.2,57,30.25,10.0,SSE,5.8,-,N/A,,Clear,160,2012-11-18 14:52:00
9:12 AM,44.6,30.2,57,30.25,10.0,SSE,5.8,-,N/A,,Mostly Cloudy,160,2012-11-18 15:12:00
9:33 AM,46.4,32.0,57,30.24,10.0,SSE,6.9,-,N/A,,Overcast,160,2012-11-18 15:33:00
9:52 AM,46.4,32.0,57,30.24,10.0,SSE,6.9,-,N/A,,Overcast,160,2012-11-18 15:52:00
10:12 AM,46.4,30.2,53,30.24,10.0,South,6.9,-,N/A,,Overcast,170,2012-11-18 16:12:00
10:33 AM,46.4,30.2,53,30.24,10.0,SSE,8.1,-,N/A,,Overcast,150,2012-11-18 16:33:00
10:52 AM,50.0,30.2,47,30.23,10.0,SSE,8.1,-,N/A,,Overcast,150,2012-11-18 16:52:00
11:12 AM,51.8,30.2,44,30.22,10.0,SSE,6.9,-,N/A,,Mostly Cloudy,160,2012-11-18 17:12:00
11:33 AM,51.8,30.2,44,30.22,10.0,South,5.8,-,N/A,,Scattered Clouds,170,2012-11-18 17:33:00
11:52 AM,53.6,30.2,41,30.21,10.0,SSE,6.9,-,N/A,,Clear,150,2012-11-18 17:52:00
12:12 PM,53.6,28.4,38,30.20,10.0,SSE,10.4,-,N/A,,Clear,160,2012-11-18 18:12:00
12:33 PM,57.2,30.2,36,30.19,10.0,SSE,6.9,-,N/A,,Mostly Cloudy,150,2012-11-18 18:33:00
12:52 PM,57.2,28.4,33,30.19,10.0,South,8.1,-,N/A,,Mostly Cloudy,190,2012-11-18 18:52:00
1:12 PM,55.4,28.4,36,30.18,10.0,SSE,9.2,-,N/A,,Mostly Cloudy,150,2012-11-18 19:12:00
1:33 PM,57.2,28.4,33,30.18,10.0,South,12.7,23.0,N/A,,Mostly Cloudy,170,2012-11-18 19:33:00
1:52 PM,55.4,28.4,36,30.17,10.0,South,8.1,18.4,N/A,,Mostly Cloudy,180,2012-11-18 19:52:00
2:12 PM,55.4,30.2,38,30.17,10.0,SSE,9.2,17.3,N/A,,Mostly Cloudy,160,2012-11-18 20:12:00
2:33 PM,57.2,28.4,33,30.17,10.0,South,10.4,20.7,N/A,,Mostly Cloudy,180,2012-11-18 20:33:00
2:52 PM,57.2,28.4,33,30.17,10.0,South,6.9,-,N/A,,Overcast,170,2012-11-18 20:52:00
3:12 PM,57.2,30.2,36,30.17,10.0,SSE,9.2,-,N/A,,Mostly Cloudy,160,2012-11-18 21:12:00
3:33 PM,55.4,28.4,36,30.17,10.0,SSE,15.0,-,N/A,,Scattered Clouds,160,2012-11-18 21:33:00
3:52 PM,53.6,28.4,38,30.17,10.0,SSE,8.1,-,N/A,,Scattered Clouds,150,2012-11-18 21:52:00
4:12 PM,53.6,30.2,41,30.17,10.0,SSE,9.2,-,N/A,,Scattered Clouds,150,2012-11-18 22:12:00
4:33 PM,51.8,30.2,44,30.17,10.0,SSE,5.8,-,N/A,,Scattered Clouds,160,2012-11-18 22:33:00
4:52 PM,51.8,30.2,44,30.18,10.0,Calm,Calm,-,N/A,,Scattered Clouds,0,2012-11-18 22:52:00
5:12 PM,51.8,32.0,47,30.18,10.0,SSE,8.1,-,N/A,,Clear,160,2012-11-18 23:12:00
5:33 PM,51.8,32.0,47,30.19,10.0,SSE,3.5,-,N/A,,Clear,150,2012-11-18 23:33:00
5:52 PM,51.8,32.0,47,30.19,10.0,SSE,5.8,-,N/A,,Clear,150,2012-11-18 23:52:00
6:12 PM,51.8,32.0,47,30.19,10.0,SSE,6.9,-,N/A,,Clear,150,2012-11-19 00:12:00
6:33 PM,50.0,32.0,50,30.19,10.0,SSE,5.8,-,N/A,,Clear,160,2012-11-19 00:33:00
6:52 PM,50.0,32.0,50,30.19,10.0,SSE,5.8,-,N/A,,Clear,160,2012-11-19 00:52:00
7:12 PM,50.0,32.0,50,30.19,10.0,SSE,4.6,-,N/A,,Clear,160,2012-11-19 01:12:00
7:33 PM,50.0,32.0,50,30.18,10.0,SSE,10.4,-,N/A,,Clear,150,2012-11-19 01:33:00
7:52 PM,48.2,32.0,54,30.18,10.0,SSE,11.5,-,N/A,,Clear,160,2012-11-19 01:52:00
8:12 PM,50.0,32.0,50,30.18,10.0,SSE,6.9,16.1,N/A,,Clear,150,2012-11-19 02:12:00
8:33 PM,48.2,32.0,54,30.18,10.0,SSE,10.4,-,N/A,,Clear,150,2012-11-19 02:33:00
8:52 PM,48.2,32.0,54,30.19,10.0,SSE,5.8,-,N/A,,Clear,160,2012-11-19 02:52:00
9:12 PM,46.4,30.2,53,30.19,10.0,SSE,5.8,-,N/A,,Clear,160,2012-11-19 03:12:00
9:33 PM,46.4,30.2,53,30.19,10.0,SSE,5.8,-,N/A,,Clear,150,2012-11-19 03:33:00
9:52 PM,46.4,32.0,57,30.19,10.0,SSE,4.6,-,N/A,,Clear,160,2012-11-19 03:52:00
10:12 PM,46.4,32.0,57,30.19,10.0,SSE,6.9,-,N/A,,Clear,150,2012-11-19 04:12:00
10:33 PM,46.4,32.0,57,30.19,10.0,SSE,6.9,-,N/A,,Clear,150,2012-11-19 04:33:00
10:53 PM,46.4,30.2,53,30.19,10.0,SSE,8.1,-,N/A,,Clear,160,2012-11-19 04:53:00
11:12 PM,46.4,30.2,53,30.18,10.0,SSE,9.2,-,N/A,,Scattered Clouds,150,2012-11-19 05:12:00
11:33 PM,46.4,30.2,53,30.18,10.0,SSE,6.9,-,N/A,,Scattered Clouds,150,2012-11-19 05:33:00
11:53 PM,46.4,30.2,53,30.18,10.0,SSE,5.8,-,N/A,,Scattered Clouds,160,2012-11-19 05:53:00